www.pogodaiklimat.ru

Погода и климат >> Архив погоды >> Нигерия >> Абуджа


ПОГОДА в Абудже

  • Прогноз погоды в Абудже
  • Монитор погоды в Абудже

АРХИВ ПОГОДЫ в Абудже

Время (UTC), дата Ветер
(напр.,м/с)
 
Видим.   Явления Облачность Т
(С)
Тd
(С)
f
(%)
Тe
(С)
Тes
(С)
Комфортность P
(гПа)
Po
(гПа)
Тmin
(С)
Tmax
(С)
R
(мм)
R24
(мм)
S
(см)
06 12.06 З 3 10 км 9/3 330 м
[Cb cap Ac trans Cs]
+29.4 +23.9 72 +40 +41 очень
душно
1012.9 972.7 +31.8
09 12.06 ЮЗ 6 10 км 9/6 300 м
[Cb cap Ac trans Cs]
+27.9 +23.5 77 +38 +39 очень
душно
1017.0 976.0
12 12.06 штиль 0 50 км ?/? +29.0 +24.0 74 1015.8
15 12.06 ЮЗ 9 10 км в посл. час дождь 9/5 330 м
[Cb cap Ac trans Cs]
+29.0 +23.9 74 +40 +40 очень
душно
1013.3 972.4
18 12.06 З 4 10 км гроза, ливневой дождь 9/9 240 м
[]
+25.8 +23.8 89 +35 +35 очень
душно
1014.2 973.3 +30.0 1
21 12.06 штиль 0 10 км в посл. час гроза 9/3 240 м
[Sc Ac trans Cs]
+24.1 +21.7 86 +31 +31 очень
душно
1016.8 975.8
00 13.06 штиль 0 10 км 9/0
[Ac trans Cs]
+23.9 +22.1 90 +31 +31 очень
душно
1016.3 975.3 1
03 13.06 С 2 10 км 9/0
[Cs]
+23.2 +21.6 91 +31 +31 очень
душно
1015.1 974.1
06 13.06 С 2 10 км 9/0
[Cs]
+22.5 +21.8 96 +30 +31 очень
душно
1016.5 975.5 +22.2 1
12 13.06 ЮЗ 6 10 км 9/8 360 м
[Cu med, cong Ac trans Cs]
+30.0 +22.5 64 +39 +40 очень
душно
1016.2 975.2
15 13.06 З 4 15 км в посл. час ливневой снег {туман} 9/6 360 м
[Sc Ac trans Cs]
+31.3 +23.8 64 +42 +44 опасность
перегрева
1007.7 1005.9
18 13.06 штиль 0 10 км 9/3 330 м
[Cb cap Ac trans Cs]
+27.7 +22.8 75 +37 +37 очень
душно
1013.5 972.6 +32.3
21 13.06 ЮВ 3 10 км 9/6 300 м
[Sc Ac trans Cs]
+26.9 +23.5 82 +37 +37 очень
душно
1016.5 975.5
00 14.06 ЮЗ 4 10 км гроза без осадков 9/5 270 м
[Cb cap Ac trans Cs]
+26.0 +23.7 87 +35 +35 очень
душно
1016.1 975.1
03 14.06 Ю 8 10 км гроза без осадков 9/6 240 м
[Cb cap Ac trans Cs]
+25.0 +23.6 92 +34 +34 очень
душно
1015.4 974.4
09 14.06 З 3
{6}
10 км в посл. час гроза 9/8 240 м
[Sc diur, vesp Ac As Cs]
+22.6 +21.1 91 +30 +31 очень
душно
1018.0 976.9 501
12 14.06 штиль 0 10 км 9/8 270 м
[Sc diur, vesp Ac As Cs]
+25.2 +22.0 82 +32 +37 очень
душно
1016.8 975.8
15 14.06 З 4 н/о в посл. час гроза {туман} н/о +28.1 1014.2 975.4
18 14.06 ЮЗ 3 12 км 9/3 330 м
[Cb cap Ac trans Cs]
+27.2 +23.0 78 +36 +36 очень
душно
1014.7 973.9 +29.5
21 14.06 штиль 0 10 км 9/1 270 м
[Sc Ac trans Cs]
+25.9 +23.3 86 +35 +35 очень
душно
1016.7 975.7
00 15.06 штиль 0 10 км 9/1 240 м
[St Cs]
+24.9 +23.5 92 +34 +34 очень
душно
1016.6 975.6
03 15.06 штиль 0 10 км 9/0
[Cs]
+24.0 +22.8 93 +32 +32 очень
душно
1015.4 974.4
06 15.06 штиль 0 10 км 9/3 240 м
[Sc Ac trans Cs]
+23.5 +22.6 95 +31 +31 очень
душно
1015.9 974.9 +22.6
09 15.06 Ю 5 12 км 9/4 300 м
[Sc Ac trans Cs]
+27.0 +22.6 77 +36 +38 очень
душно
1017.7 976.6
15 15.06 ЮЗ 6 14 км 9/5 330 м
[Cb cap Ac trans Cs]
+30.0 +23.7 69 +41 +42 опасность
перегрева
1013.6 972.7
18 15.06 СЗ 5 10 км 9/5 300 м
[Cb cap Ac trans Cs]
+27.1 +24.1 84 +38 +38 очень
душно
1015.2 974.2 +30.2
21 15.06 штиль 0 10 км в посл. час гроза 9/1 270 м
[Sc Ac trans Cs]
+26.5 +24.5 89 +37 +37 очень
душно
1016.9 975.9
00 16.06 штиль 0 10 км 9/1 240 м
[Sc Ac trans Cs]
+25.6 +24.5 94 +36 +36 очень
душно
1017.3 976.2
03 16.06 СЗ 2 10 км гроза без осадков 9/3 240 м
[Cb cap Ac trans Cs]
+24.2 +23.3 95 +32 +32 очень
душно
1015.9 974.9
06 16.06 штиль 0 10 км в посл. час гроза 9/3 240 м
[Sc Ac trans Cs]
+24.0 +22.7 92 +31 +32 очень
душно
1016.3 975.3 +23.5
09 16.06 З 7 10 км 9/6 300 м
[Sc Ac trans Cs]
+26.8 +22.7 78 +35 +36 очень
душно
1017.9 976.8
12 16.06 З 6 10 км 9/5 360 м
[Cu med, cong Ac trans Cs]
+29.2 +23.8 73 +40 +43 очень
душно
1016.7 975.7
15 16.06 ЮЗ 7 10 км 9/4 400 м
[Cb cap Ac trans Cs]
+31.5 +23.7 63 +43 +43 опасность
перегрева
1014.1 973.2
18 16.06 СВ 2 7000 м гроза, ливневой дождь туман 9/8 270 м
[Cb cap Ac As Ci fib]
+28.5 +24.4 79 +40 +40 очень
душно
1016.1 975.1 +32.2
21 16.06 В 3 10 км в посл. час гроза 9/1 210 м
[Sc Ac trans Cs]
+22.9 +20.0 84 +30 +30 очень
душно
1016.2 975.2
00 17.06 СВ 3 10 км 9/1 240 м
[Sc Ac trans Cs]
+22.9 +21.1 90 +30 +30 очень
душно
1015.9 974.9 3
03 17.06 СВ 3 10 км 9/1 240 м
[Sc Ac trans Cs]
+22.9 +21.1 90 +30 +30 очень
душно
1015.9 974.9 3
06 17.06 В 2 10 км 9/3 240 м
[Sc Ac trans Cs]
+23.6 +22.7 95 +31 +31 очень
душно
1015.9 974.9 +21.5 3
09 17.06 ЮЗ 3
{7}
10 км 8/8 300 м
[Sc diur, vesp Cs]
+27.6 +23.6 79 +38 +41 очень
душно
1017.1 976.1
12 17.06 ЮВ 4 12 км 9/6 400 м
[Cu med, cong Ac trans Cs]
+30.9 +24.4 68 +43 +47 опасность
перегрева
1015.8 974.8
15 17.06 З 7 12 км 9/6 420 м
[Cu med, cong Ac trans Cs]
+32.1 +24.5 64 +45 +45 опасность
перегрева
1013.5 972.6
18 17.06 З 4 10 км 9/3 330 м
[Cb cap Ac trans Cs]
+30.0 +24.4 72 +42 +42 опасность
перегрева
1014.1 973.2 +32.6
21 17.06 З 23 10 км 9/3 300 м
[Sc Ac trans Cs]
+27.8 +24.4 82 +39 +39 очень
душно
1016.7 975.7
00 18.06 штиль 0 10 км гроза без осадков 9/3 270 м
[Cb cap Cs]
+26.5 +24.4 88 +37 +37 очень
душно
1016.6 975.6
03 18.06 ЮВ 4 10 км 9/4 270 м
[Sc Ac trans Cs]
+25.4 +24.0 92 +35 +35 очень
душно
1016.1 975.1
06 18.06 Ю 6 10 км 9/6 270 м
[Sc Cs]
+24.6 +22.4 88 +32 +32 очень
душно
1017.5 976.4 +24.4
09 18.06 З 2 10 км 9/6 300 м
[Cu med, cong Cs]
+27.7 +24.0 80 +38 +43 очень
душно
1018.5 977.5
12 18.06 З 4 12 км 9/5 400 м
[Cu med, cong Cs]
+30.8 +24.0 67 +42 +48 опасность
перегрева
1016.5 975.5
15 18.06 З 5 12 км 9/6 420 м
[Cu med, cong Cs]
+32.6 +24.0 61 +45 +46 опасность
перегрева
1014.1 973.2
18 18.06 З 3 12 км 9/3 360 м
[Sc Cs]
+30.6 +24.6 70 +43 +43 опасность
перегрева
1014.0 973.1 +33.5
21 18.06 Ю 4 10 км 9/3 300 м
[Sc Cs]
+28.7 +23.6 74 +39 +39 очень
душно
1015.9 974.9
00 19.06 С 4 10 км 9/8 200 м
[Cu med, cong Ac cast]
+27.1 +24.7 87 +39 +39 очень
душно
1016.1 975.1
03 19.06 штиль 0 50 км ?/? +25.9 +24.5 92 +36 +36 очень
душно
1015.6 974.6

 

Местоположение метеостанции Абуджа (Нигерия): широта 9.25 долгота 7.00 высота над уровнем моря 344 м.

В архиве по умолчанию представлена погода в Абудже за последнюю неделю. Архивные данные за месяц целиком и за предыдущие месяцы, начиная с января 2011 года, Вы можете получить, выбрав интересующий диапазон дат из раскрывающегося списка и нажав кнопку "Ввод!".


*Определитесь, кто Вы:
робот инопланетянин человек

Внимание! Время в таблицах - всемирное. Для получения местного времени необходимо прибавить поправку, которая равна 3 ч.

Смотрите также архив погоды в соседних городах и на ближайших метеорологических станциях:

Погода в Биде (Нигерия) (109 км)
Погода в Лафии (Нигерия) (185 км)
Погода в Джосе (Нигерия) (220 км)
Погода в Макурди (Нигерия) (239 км)
Погода в Илорине (Нигерия) (279 км)
Погода в Акуре (Нигерия) (288 км)
Погода в Йелве (Нигерия) (306 км)
Погода в Энугу (Нигерия) (315 км)
Погода в Ошогбо (Нигерия) (322 км)
Погода в Кано (Нигерия) (353 км)

Пояснения к столбцам:

Ветер - указаны скорость ветра в м/с - средняя за 10 мин, порывы в срок и между сроками (в фигурных скобках) и направление, откуда дует ветер: С - северный, СВ - северо-восточный, В - восточный, ЮВ - юго-восточный, Ю - южный, ЮЗ - юго-западный, З - западный, СЗ - северо-западный.
Видимость - горизонтальная дальность видимости в метрах или километрах. При видимости от 1 до 10 км при отсутствии осадков обычно наблюдается дымка, при ухудшении видимости до 1 км и менее - туман. В сухую погоду видимость может ухудшаться дымом, пылью или мглою.
Явления - указаны атмосферные явления, наблюдавшиеся в срок или в последний час перед сроком; фигурными скобками обозначены явления, наблюдавшиеся между сроками (за 1-3 часа до срока); квадратными скобками обозначены град или гололедные отложения с указанием их диаметра в мм.
Облачность - указаны через наклонную черту общая и нижняя облачность в баллах и высота нижней границы облаков в метрах; квадратными скобками обозначены формы облаков: Ci - перистые, Cs - перисто-слоистые, Cc - перисто-кучевые, Ac - высококучевые, As - высокослоистые, Sc - слоисто-кучевые, Ns - слоисто-дождевые, Cu - кучевые, Cb - кучево-дождевые. Подробнее классификацию облаков см. в Атласе облаков (PDF).
T - Температура воздуха - температура, измеренная на высоте 2 м над землей.
Td - Температура точки росы - температура, при понижении до которой содержащийся в воздухе водяной пар достигнет насыщения.
f - Относительная влажность воздуха - влажноcть воздуха, измеренная на высоте 2 м над землей.
Te - Эффективная температура - температура, которую ощущает одетый по сезону человек в тени. Характеристика душности погоды. При расчете учитывается влияние влажности воздуха и скорости ветра на теплоощущения человека.
Tes - Эффективная температура на солнце - температура, которую ощущает человек, с поправкой на солнечный нагрев. Характеристика знойности погоды. Зависит от высоты солнца над горизонтом, облачности и скорости ветра. Ночью, в пасмурную погоду, а также при ветре 12 м/с и более поправка равна нулю.
P - Атмосферное давление - приведенное к уровню моря атмосферное давление.
Po - Атмосферное давление - измеренное на уровне метеостанции атмосферное давление.
Tmin - Минимальная температура - минимум температуры воздуха на высоте 2 м над землей.
Tmax - Максимальная температура - максимум температуры воздуха на высоте 2 м над землей.
R - Количество осадков - Количество выпавших осадков за период времени, мм. При наведении курсора мыши на число - период времени, за который выпало указанное количество осадков.
R24 - Количество осадков - Количество выпавших осадков за 24 часа, мм.
S - Снежный покров - Высота снежного покрова, см. При наведении курсора мыши на число - состояние снежного покрова и степень покрытия местности в баллах.